TimeEDT,TemperatureF,Dew PointF,Humidity,Sea Level PressureIn,VisibilityMPH,Wind Direction,Wind SpeedMPH,Gust SpeedMPH,PrecipitationIn,Events,Conditions,WindDirDegrees,DateUTC
12:15 AM,41.0,39.2,93,29.73,8.0,NNE,17.3,25.3,N/A,,Overcast,30,2013-04-13 04:15:00
12:35 AM,41.0,39.2,93,29.73,8.0,NE,15.0,24.2,N/A,,Overcast,40,2013-04-13 04:35:00
12:55 AM,41.0,39.2,93,29.73,9.0,NE,16.1,26.5,0.01,,Overcast,40,2013-04-13 04:55:00
1:15 AM,41.0,39.2,93,29.73,10.0,NE,18.4,26.5,N/A,,Overcast,40,2013-04-13 05:15:00
1:35 AM,39.2,37.4,93,29.71,10.0,NNE,20.7,27.6,N/A,,Overcast,30,2013-04-13 05:35:00
1:55 AM,39.2,37.4,93,29.72,10.0,NNE,20.7,29.9,N/A,,Overcast,30,2013-04-13 05:55:00
2:15 AM,39.2,37.4,93,29.71,9.0,NNE,23.0,29.9,N/A,,Overcast,30,2013-04-13 06:15:00
2:35 AM,39.2,37.4,93,29.72,8.0,NNE,18.4,25.3,N/A,,Overcast,30,2013-04-13 06:35:00
3:15 AM,39.2,37.4,93,29.73,4.0,NNE,23.0,31.1,N/A,,Overcast,20,2013-04-13 07:15:00
3:35 AM,39.2,37.4,93,29.74,3.0,NNE,21.9,29.9,N/A,,Overcast,20,2013-04-13 07:35:00
3:55 AM,39.2,37.4,93,29.76,5.0,North,23.0,29.9,N/A,,Overcast,10,2013-04-13 07:55:00
4:15 AM,39.2,37.4,93,29.75,5.0,NNE,24.2,32.2,N/A,,Overcast,20,2013-04-13 08:15:00
4:35 AM,39.2,37.4,93,29.75,6.0,NNE,20.7,29.9,N/A,,Overcast,20,2013-04-13 08:35:00
4:55 AM,39.2,37.4,93,29.72,8.0,NE,21.9,34.5,N/A,,Overcast,40,2013-04-13 08:55:00
5:15 AM,39.2,37.4,93,29.73,10.0,NNE,23.0,32.2,0.01,,Overcast,30,2013-04-13 09:15:00
5:35 AM,39.2,37.4,93,29.70,10.0,NE,24.2,32.2,0.01,,Overcast,40,2013-04-13 09:35:00
5:55 AM,39.2,37.4,93,29.75,10.0,NNE,20.7,28.8,0.01,,Overcast,30,2013-04-13 09:55:00
6:15 AM,39.2,37.4,93,29.75,10.0,NNE,18.4,26.5,N/A,,Overcast,20,2013-04-13 10:15:00
6:35 AM,39.2,35.6,87,29.77,10.0,NNE,16.1,24.2,N/A,,Overcast,30,2013-04-13 10:35:00
6:55 AM,39.2,37.4,93,29.78,10.0,NNE,17.3,24.2,N/A,,Overcast,20,2013-04-13 10:55:00
7:15 AM,39.2,35.6,87,29.80,10.0,NNE,16.1,23.0,N/A,,Overcast,20,2013-04-13 11:15:00
7:35 AM,39.2,35.6,87,29.80,10.0,North,15.0,23.0,N/A,,Overcast,10,2013-04-13 11:35:00
7:55 AM,39.2,35.6,87,29.80,10.0,North,15.0,21.9,N/A,,Overcast,10,2013-04-13 11:55:00
8:15 AM,39.2,35.6,87,29.80,9.0,North,17.3,23.0,N/A,,Overcast,10,2013-04-13 12:15:00
8:55 AM,39.2,35.6,87,29.81,9.0,North,16.1,23.0,N/A,,Overcast,10,2013-04-13 12:55:00
9:15 AM,39.2,35.6,87,29.82,8.0,North,17.3,21.9,N/A,,Overcast,360,2013-04-13 13:15:00
9:35 AM,39.2,35.6,87,29.84,10.0,North,16.1,24.2,N/A,,Overcast,360,2013-04-13 13:35:00
9:55 AM,39.2,37.4,93,29.84,9.0,North,15.0,18.4,N/A,,Overcast,360,2013-04-13 13:55:00
10:15 AM,39.2,37.4,93,29.85,9.0,North,13.8,21.9,N/A,,Overcast,350,2013-04-13 14:15:00
10:35 AM,39.2,37.4,93,29.85,6.0,North,13.8,20.7,N/A,,Overcast,350,2013-04-13 14:35:00
11:15 AM,41.0,35.6,81,29.86,10.0,North,13.8,-,N/A,,Overcast,350,2013-04-13 15:15:00
11:35 AM,41.0,35.6,81,29.86,10.0,North,15.0,-,N/A,,Overcast,350,2013-04-13 15:35:00
11:55 AM,41.0,35.6,81,29.86,10.0,North,11.5,17.3,N/A,,Overcast,350,2013-04-13 15:55:00
12:15 PM,41.0,35.6,81,29.86,10.0,North,13.8,-,N/A,,Overcast,350,2013-04-13 16:15:00
12:35 PM,41.0,35.6,81,29.87,10.0,NNW,12.7,16.1,N/A,,Overcast,340,2013-04-13 16:35:00
12:55 PM,41.0,35.6,81,29.86,10.0,NNW,13.8,-,N/A,,Overcast,340,2013-04-13 16:55:00
1:15 PM,41.0,35.6,81,29.87,10.0,NNW,9.2,-,N/A,,Overcast,340,2013-04-13 17:15:00
1:55 PM,41.0,35.6,81,29.87,10.0,NNW,8.1,-,N/A,,Overcast,340,2013-04-13 17:55:00
2:15 PM,41.0,35.6,81,29.86,10.0,NNW,9.2,-,N/A,,Overcast,340,2013-04-13 18:15:00
2:35 PM,41.0,35.6,81,29.86,10.0,NNW,9.2,-,N/A,,Overcast,340,2013-04-13 18:35:00
2:55 PM,42.8,35.6,76,29.86,10.0,North,8.1,-,N/A,,Mostly Cloudy,360,2013-04-13 18:55:00
3:15 PM,42.8,35.6,76,29.86,10.0,North,6.9,-,N/A,,Clear,10,2013-04-13 19:15:00
3:35 PM,42.8,35.6,76,29.87,10.0,NE,6.9,-,N/A,,Clear,40,2013-04-13 19:35:00
3:55 PM,42.8,35.6,76,29.86,10.0,ENE,9.2,-,N/A,,Partly Cloudy,60,2013-04-13 19:55:00
4:15 PM,42.8,35.6,76,29.85,10.0,NE,8.1,-,N/A,,Partly Cloudy,50,2013-04-13 20:15:00
4:35 PM,44.6,35.6,71,29.86,10.0,ENE,6.9,-,N/A,,Partly Cloudy,70,2013-04-13 20:35:00
4:55 PM,42.8,35.6,76,29.87,10.0,East,6.9,-,N/A,,Mostly Cloudy,80,2013-04-13 20:55:00
5:15 PM,42.8,33.8,70,29.87,10.0,East,4.6,-,N/A,,Overcast,90,2013-04-13 21:15:00
5:35 PM,42.8,35.6,76,29.88,10.0,ENE,4.6,-,N/A,,Overcast,70,2013-04-13 21:35:00
5:55 PM,42.8,35.6,76,29.89,10.0,South,3.5,-,N/A,,Overcast,170,2013-04-13 21:55:00
6:15 PM,42.8,35.6,76,29.89,10.0,Calm,Calm,-,N/A,,Overcast,0,2013-04-13 22:15:00
6:35 PM,42.8,35.6,76,29.89,10.0,Calm,Calm,-,N/A,,Overcast,0,2013-04-13 22:35:00
6:55 PM,42.8,37.4,81,29.91,10.0,South,4.6,-,N/A,,Overcast,180,2013-04-13 22:55:00
7:15 PM,42.8,35.6,76,29.92,10.0,SSW,6.9,-,N/A,,Overcast,210,2013-04-13 23:15:00
7:35 PM,39.2,35.6,87,29.92,10.0,South,5.8,-,N/A,,Mostly Cloudy,190,2013-04-13 23:35:00
7:55 PM,39.2,35.6,87,29.92,10.0,SSE,3.5,-,N/A,,Mostly Cloudy,150,2013-04-13 23:55:00
8:15 PM,39.2,35.6,87,29.92,10.0,South,5.8,-,N/A,,Mostly Cloudy,180,2013-04-14 00:15:00
8:35 PM,39.2,37.4,93,29.92,10.0,SE,3.5,-,N/A,,Scattered Clouds,130,2013-04-14 00:35:00
8:55 PM,39.2,35.6,87,29.93,10.0,SSE,4.6,-,N/A,,Partly Cloudy,160,2013-04-14 00:55:00
9:15 PM,39.2,37.4,93,29.94,10.0,South,5.8,-,N/A,,Mostly Cloudy,180,2013-04-14 01:15:00
9:35 PM,41.0,37.4,87,29.94,10.0,South,4.6,-,N/A,,Overcast,190,2013-04-14 01:35:00
9:55 PM,41.0,37.4,87,29.94,10.0,South,5.8,-,N/A,,Mostly Cloudy,180,2013-04-14 01:55:00
10:15 PM,41.0,37.4,87,29.95,10.0,South,5.8,-,N/A,,Mostly Cloudy,170,2013-04-14 02:15:00
10:35 PM,41.0,39.2,93,29.95,10.0,South,6.9,-,N/A,,Overcast,180,2013-04-14 02:35:00
10:55 PM,42.8,39.2,87,29.95,10.0,South,8.1,-,N/A,,Overcast,180,2013-04-14 02:55:00
11:15 PM,42.8,39.2,87,29.96,10.0,South,9.2,-,N/A,,Overcast,190,2013-04-14 03:15:00
11:35 PM,42.8,39.2,87,29.96,10.0,South,8.1,-,N/A,,Overcast,190,2013-04-14 03:35:00
11:55 PM,42.8,39.2,87,29.95,10.0,South,8.1,-,N/A,,Overcast,190,2013-04-14 03:55:00